Location: Unspecified
(47.6579°N, 23.5637°E)
Time: 03:25:34
(UTC+02:00)

Envisat - Pass Details

Date: 07 December 2021
Orbit: 764 x 766 km, 98.2° (Epoch: 17 January)

Event Time Altitude Azimuth Distance (km) Brightness Sun altitude
Rises 05:38:52 0° 13° (NNE) 3,244 6.3 -22.8°
Reaches altitude 10° 05:41:11 10° 13° (NNE) 2,313 5.5 -22.4°
Maximum altitude 05:46:18 85° 285° (WNW) 774 2.9 -21.6°
Drops below altitude 10° 05:51:22 10° 198° (SSW) 2,295 5.4 -20.7°
Sets 05:53:39 0° 197° (SSW) 3,217 6.2 -20.4°
